ORBCOMM FM109 [+] (40086 NORAD) Tracking and Keplerian Element Data

This shows tracking and keplerian element data for the satellite.

Feedback or suggestion? Click here.




ElementValue
Catalog40086
NameORBCOMM FM109 [+]
Epoch Orbit23062
Epoch Day318.74457124
Epoch Year2018
RAAN173.4022
Inclination47.0029
Eccentricity0.0001867
Argument of Perigee95.9544
Mean Anonmoly264.1553
Mean Motion14.54724909
Decay Rate-4.2E-07
L11 40086U 14040A 18318.74457124 -.00000042 00000-0 28653-4 0 9997
L22 40086 47.0029 173.4022 0001867 95.9544 264.1553 14.54724909230623

Live tracking and technical data element details for ORBCOMM FM109 [+] (NORAD 40086). ORBCOMM FM109 [+] can be tracked NOW for your location showing map with azimuth and elevation plus other details from your city location.

Track the satellite on the map from your city or location and see movement details for azimuth, elevation, latitude, longitude, range, height, and movement on the map or in text.







IsCatalogInMostPopularTable: catalog: 40086, numindb: 77
Update: records affected: 1



GetName: 40086 ORBCOMM FM109 [+]

Hit Count: updated at: Fri, 16 Nov 2018 05:39:29 GMT